Weather History for Delaware, OH

Change the Weather History Date:

Thursday, December 6, 2012

  Actual Average Record
Temperature  
Mean Temperature 34 °F -  
Max Temperature 44 °F 42 °F 69 °F (1956)
Min Temperature 24 °F 26 °F 7 °F (1974)
Degree Days  
Heating Degree Days 31    
Moisture  
Dew Point 27 °F    
Average Humidity 75    
Maximum Humidity 86    
Minimum Humidity 53    
Precipitation  
Precipitation 0.00 in - - ()
Sea Level Pressure  
Sea Level Pressure 30.16 in    
Wind  
Wind Speed 5 mph (SE)    
Max Wind Speed 12 mph    
Max Gust Speed -    
Visibility 10 miles    
Events      
Averages and records for this station are not official NWS values.
T = Trace of Precipitation, MM = Missing Value Source: NWS Daily Summary

Daily Weather History Graph

Daily Weather History Graph

Search for Another Location

Airport:

Trip Planner

Search our weather history database for the weather conditions in past years. The results will help you decide how hot, cold, wet, or windy it might be!

Date:

Astronomy

Dec. 06, 2012 Rise Set
Actual Time 7:41 AM EST 5:06 PM EST
Civil Twilight 7:10 AM EST 5:36 PM EST
Nautical Twilight 6:36 AM EST 6:10 PM EST
Astronomical Twilight 6:03 AM EST 6:43 PM EST
Moon No Moon Rise 12:32 PM EST (12/6)
Length of Visible Light 10h 25m
Length of Day
9h 25m
Waning Gibbous, 49% of the Moon is Illuminated
Dec 6
Waning Gibbous
Dec 13
New
Dec 20
First Quarter
Dec 28
Full
Jan 4
Last Quarter

Hourly Weather History & Observations

Time (EST) Temp. Windchill Dew Point Humidity Pressure Visibility Wind Dir Wind Speed Gust Speed Precip Events Conditions
12:00 AM 26.6 °F 21.2 °F 23.0 °F 86% 30.33 in 10.0 mi ENE 4.6 mph - N/A   Clear
12:19 AM 26.6 °F 22.6 °F 23.0 °F 86% 30.33 in 10.0 mi NE 3.5 mph - N/A   Clear
12:39 AM 26.6 °F - 23.0 °F 86% 30.33 in 10.0 mi Calm Calm - N/A   Clear
1:00 AM 24.8 °F 19.1 °F 21.2 °F 86% 30.31 in 10.0 mi East 4.6 mph - N/A   Clear
1:19 AM 26.6 °F 21.2 °F 21.2 °F 80% 30.31 in 10.0 mi ESE 4.6 mph - N/A   Clear
1:39 AM 26.6 °F 21.2 °F 21.2 °F 80% 30.31 in 10.0 mi East 4.6 mph - N/A   Clear
2:00 AM 26.6 °F 22.6 °F 21.2 °F 80% 30.31 in 10.0 mi ESE 3.5 mph - N/A   Clear
2:19 AM 26.6 °F 19.1 °F 21.2 °F 80% 30.30 in 10.0 mi ESE 6.9 mph - N/A   Clear
2:39 AM 26.6 °F 20.0 °F 21.2 °F 80% 30.30 in 10.0 mi East 5.8 mph - N/A   Clear
3:00 AM 26.6 °F 22.6 °F 21.2 °F 80% 30.30 in 10.0 mi ESE 3.5 mph - N/A   Clear
3:19 AM 26.6 °F 22.6 °F 21.2 °F 80% 30.30 in 10.0 mi ESE 3.5 mph - N/A   Clear
3:39 AM 26.6 °F - 21.2 °F 80% 30.29 in 10.0 mi Calm Calm - N/A   Clear
4:00 AM 24.8 °F 17.9 °F 21.2 °F 86% 30.27 in 10.0 mi East 5.8 mph - N/A   Clear
4:19 AM 26.6 °F 20.0 °F 21.2 °F 80% 30.27 in 10.0 mi East 5.8 mph - N/A   Clear
4:39 AM 26.6 °F 19.1 °F 21.2 °F 80% 30.26 in 10.0 mi East 6.9 mph - N/A   Clear
5:00 AM 26.6 °F - 21.2 °F 80% 30.27 in 10.0 mi Calm Calm - N/A   Clear
5:19 AM 26.6 °F 22.6 °F 21.2 °F 80% 30.27 in 10.0 mi ESE 3.5 mph - N/A   Clear
5:39 AM 24.8 °F - 21.2 °F 86% 30.27 in 10.0 mi Calm Calm - N/A   Clear
6:00 AM 26.6 °F - 21.2 °F 80% 30.26 in 10.0 mi Calm Calm - N/A   Clear
6:19 AM 26.6 °F 22.6 °F 21.2 °F 80% 30.27 in 10.0 mi East 3.5 mph - N/A   Clear
6:40 AM 26.6 °F 21.2 °F 23.0 °F 86% 30.26 in 10.0 mi East 4.6 mph - N/A   Clear
7:00 AM 26.6 °F 19.1 °F 23.0 °F 86% 30.25 in 10.0 mi East 6.9 mph - N/A   Clear
7:19 AM 26.6 °F 20.0 °F 23.0 °F 86% 30.25 in 10.0 mi East 5.8 mph - N/A   Clear
7:40 AM 26.6 °F 19.1 °F 21.2 °F 80% 30.25 in 10.0 mi East 6.9 mph - N/A   Clear
8:00 AM 24.8 °F 17.9 °F 21.2 °F 86% 30.25 in 10.0 mi East 5.8 mph - N/A   Clear
8:19 AM 26.6 °F 19.1 °F 23.0 °F 86% 30.24 in 10.0 mi East 6.9 mph - N/A   Clear
8:40 AM 28.4 °F 21.2 °F 23.0 °F 80% 30.24 in 10.0 mi ESE 6.9 mph - N/A   Clear
9:00 AM 30.2 °F 21.3 °F 24.8 °F 80% 30.23 in 10.0 mi ESE 10.4 mph - N/A   Clear
9:19 AM 30.2 °F 20.8 °F 24.8 °F 80% 30.21 in 10.0 mi ESE 11.5 mph - N/A   Clear
9:40 AM 32.0 °F 23.6 °F 26.6 °F 80% 30.20 in 10.0 mi ESE 10.4 mph - N/A   Clear
10:00 AM 32.0 °F 23.6 °F 26.6 °F 80% 30.20 in 10.0 mi ESE 10.4 mph - N/A   Clear
10:19 AM 32.0 °F 24.2 °F 26.6 °F 80% 30.19 in 10.0 mi SE 9.2 mph - N/A   Clear
10:40 AM 33.8 °F 27.0 °F 26.6 °F 75% 30.19 in 10.0 mi SE 8.1 mph - N/A   Clear
10:59 AM 33.8 °F 26.4 °F 26.6 °F 75% 30.18 in 10.0 mi SE 9.2 mph - N/A   Clear
11:19 AM 35.6 °F 30.7 °F 26.6 °F 70% 30.18 in 10.0 mi SSE 5.8 mph - N/A   Clear
11:40 AM 37.4 °F 32.1 °F 28.4 °F 70% 30.17 in 10.0 mi South 6.9 mph - N/A   Clear
11:59 AM 37.4 °F 32.1 °F 28.4 °F 70% 30.16 in 10.0 mi South 6.9 mph - N/A   Clear
12:20 PM 39.2 °F 34.2 °F 28.4 °F 65% 30.15 in 10.0 mi South 6.9 mph - N/A   Clear
12:40 PM 41.0 °F 36.4 °F 28.4 °F 61% 30.14 in 10.0 mi SSE 6.9 mph - N/A   Clear
12:59 PM 41.0 °F 35.8 °F 28.4 °F 61% 30.12 in 10.0 mi SSE 8.1 mph - N/A   Clear
1:20 PM 41.0 °F 38.0 °F 28.4 °F 61% 30.12 in 10.0 mi SSE 4.6 mph - N/A   Clear
1:40 PM 42.8 °F 38.6 °F 28.4 °F 57% 30.10 in 10.0 mi SSE 6.9 mph - N/A   Clear
1:59 PM 42.8 °F 40.1 °F 28.4 °F 57% 30.10 in 10.0 mi South 4.6 mph - N/A   Clear
2:20 PM 44.6 °F 40.7 °F 28.4 °F 53% 30.08 in 10.0 mi SSE 6.9 mph - N/A   Clear
2:39 PM 42.8 °F 40.1 °F 28.4 °F 57% 30.07 in 10.0 mi SSE 4.6 mph - N/A   Clear
2:59 PM 42.8 °F 40.1 °F 28.4 °F 57% 30.06 in 10.0 mi SSE 4.6 mph - N/A   Clear
3:20 PM 42.8 °F 40.1 °F 28.4 °F 57% 30.06 in 10.0 mi South 4.6 mph - N/A   Clear
3:40 PM 42.8 °F 40.1 °F 28.4 °F 57% 30.06 in 10.0 mi SSE 4.6 mph - N/A   Clear
3:59 PM 41.0 °F 37.1 °F 30.2 °F 65% 30.06 in 10.0 mi SSE 5.8 mph - N/A   Clear
4:20 PM 41.0 °F 38.0 °F 30.2 °F 65% 30.06 in 10.0 mi SSE 4.6 mph - N/A   Clear
4:39 PM 41.0 °F 38.0 °F 30.2 °F 65% 30.06 in 10.0 mi SE 4.6 mph - N/A   Clear
4:59 PM 39.2 °F - 30.2 °F 70% 30.06 in 10.0 mi Calm Calm - N/A   Clear
5:20 PM 37.4 °F 33.8 °F 28.4 °F 70% 30.04 in 10.0 mi SE 4.6 mph - N/A   Clear
5:39 PM 37.4 °F 34.9 °F 28.4 °F 70% 30.04 in 10.0 mi SE 3.5 mph - N/A   Clear
5:59 PM 37.4 °F 34.9 °F 30.2 °F 75% 30.04 in 10.0 mi SE 3.5 mph - N/A   Mostly Cloudy
6:20 PM 37.4 °F - 32.0 °F 81% 30.05 in 10.0 mi Calm Calm - N/A   Overcast
6:39 PM 39.2 °F - 32.0 °F 75% 30.05 in 10.0 mi Calm Calm - N/A   Overcast
6:59 PM 39.2 °F - 32.0 °F 75% 30.05 in 10.0 mi Calm Calm - N/A   Overcast
7:20 PM 37.4 °F 34.9 °F 32.0 °F 81% 30.05 in 10.0 mi SSE 3.5 mph - N/A   Overcast
7:39 PM 39.2 °F - 32.0 °F 75% 30.04 in 10.0 mi Calm Calm - N/A   Overcast
8:00 PM 37.4 °F - 32.0 °F 81% 30.05 in 10.0 mi Calm Calm - N/A   Overcast
8:20 PM 39.2 °F 37.0 °F 32.0 °F 75% 30.04 in 10.0 mi ESE 3.5 mph - N/A   Overcast
8:39 PM 39.2 °F 37.0 °F 32.0 °F 75% 30.03 in 10.0 mi East 3.5 mph - N/A   Scattered Clouds
9:00 PM 37.4 °F 34.9 °F 32.0 °F 81% 30.02 in 10.0 mi ESE 3.5 mph - N/A   Clear
9:39 PM 37.4 °F 34.9 °F 32.0 °F 81% 30.02 in 10.0 mi SSE 3.5 mph - N/A   Mostly Cloudy
10:00 PM 39.2 °F 37.0 °F 32.0 °F 75% 30.01 in 10.0 mi SSE 3.5 mph - N/A   Overcast
10:20 PM 41.0 °F 39.0 °F 32.0 °F 70% 30.00 in 10.0 mi SSE 3.5 mph - N/A   Overcast
10:39 PM 41.0 °F 38.0 °F 32.0 °F 70% 30.00 in 10.0 mi South 4.6 mph - N/A   Drizzle
11:00 PM 41.0 °F 35.2 °F 33.8 °F 76% 30.00 in 10.0 mi SSE 9.2 mph - N/A   Overcast
11:20 PM 41.0 °F 36.4 °F 35.6 °F 81% 29.99 in 10.0 mi South 6.9 mph - N/A   Overcast
11:39 PM 41.0 °F 38.0 °F 35.6 °F 81% 29.99 in 10.0 mi South 4.6 mph - N/A   Overcast
11:59 PM 41.0 °F 37.1 °F 35.6 °F 81% 29.99 in 10.0 mi South 5.8 mph - N/A   Overcast